Showing default

GALILEO 17 (26D), 41861

Orbit data source: Space-Track

GALILEO 17 (26D), 41861 is a payload satellite owned by GNSS Agency (ESA) that was launched on Thu, 17 Nov 2016 UTC via an ARIANE 5ES launch vehicle from the French Guiana (FRGUI). Payloads include a variety of satellites, spacecraft, and rockets equipped with specific instruments for various scientific and technological missions. These include communications satellites like Starlink; space stations such as the ISS; scientific satellites like the Hubble; Earth observation satellites from companies like Planet Labs, Umbra, and HawkEye 360; GPS; miniature CubeSats for education and research; and military/defense satellites.

Loading next visibility...
GALILEO 17 (26D) details
Identifier
41861, 2016-069C
Orbit
Active
Last TLE update2 days ago
Origin
Flag of ESAGNSS Agency (ESA)
ManufacturerOHB
MissionOperational Civil Navigation
Bus & MotorGALILEOSAT, AOCS
Mass738 kg wet, 700 kg dry
Launch date (UTC)
2016-11-17 (8 years ago)
Launch vehicle
ARIANE 5ES
Launch site
French Guiana (FRGUI)
Object type
Payload
Rocket body
Debris
Shape & HBRBox + 2 Pan, 14.71 m
Radar Cross Section9.223 m², Large (>1 m²)

Expand to show TLE details & history

TLE from 2 days ago
0 GALILEO 17 (26D)
1 41861U 16069C   24359.89763238  .00000011  00000-0  00000-0 0  9993
2 41861  55.1839 116.0320 0002774 267.4724  92.4648  1.70475087 50320
Epoch: 2024-12-24T21:32Z
Definitive object data (Epoch: 2024-12-24T21:32:35.437Z)
Latitude-0.00005°
Longitude58.97542°
Altitude23,222.685 km
Speed3.67 km/s
True Right ascension07h 44m 05s
True Declination0° 00' 00"
Sunlit
Object was in daylight at TLE epoch
Visualization TLE readout
Latitude-29.09394°
Longitude36.20575°
Altitude23,226.268 km
Speed3.67 km/s
Apparent Right ascension05h 35m 59s
Apparent Declination-33° 15' 54"
Sunlit
Object is in daylight
Visualization observer readout
Local Sidereal Time13:43:20
Azimuth259.032° W
Elevation-43.652°
Doppler factor1
Orbital elements
Apogee altitude23,230.27 km
Perigee altitude23,213.848 km
Semi-major axis29,600.196 km
Eccentricity0.0002774
Inclination55.1839°
RAAN116.032°
Arg. of periapsis267.4724°
True anomaly92.49656°
Mean anomaly92.4648°
Eccentric anomaly92.48068°
Mean motion0.42619 °/min
BSTARUnknown
Orbital period844.7 mins
Loading maneuver chart data...
Loading historical data...
Loading historical data...
Loading historical data...
Loading historical data...
Loading historical data...
Loading historical data...
Loading historical data...

GALILEO 17 (26D) Visibility forecast

Observer location: undefined°, undefined

Span
Click to sort rows by Start time (UTC) header in descending order
Start Az.
Max El. time (UTC)
Max El. Az.
Max El.
End time (UTC)
End Az.
326 mins2024-12-26 18:15:30.983Z313.615° NW2024-12-26 21:00:30.983Z276.867° WNW37.517°2024-12-26 23:41:30.983Z218.223° SW
324 mins2024-12-27 05:00:30.983Z141.455° SSE2024-12-27 07:40:30.983Z82.69° E37.533°2024-12-27 10:24:30.983Z46.381° ENE
|